Flag for Luxembourg Weather past 2 weeks in Ettelbruck, Luxembourg

Now
58 °F

Partly sunny.


Feels Like: 58 °F
Forecast: 51 / 69 °F
Wind: 3 mph from Northeast

Location: Luxembourg / Luxembourg

Current Time: May 22, 2015 at 11:24:07 AM

Latest Report: May 22, 2015 at 10:00 AM


Visibility: 16 mi

Pressure: 30.32 "Hg

Humidity: 57%

Dew point: 43 °F

Location of EttelbruckLocation

Historic Weather in Ettelbruck — Graph

°F

Ettelbruck temperature yesterday

Maximum temperature yesterday: 62 °F (at 6:00 PM)
Minimum temperature yesterday: 38 °F (at 6:00 AM)
Average temperature yesterday: 51 °F

Past Weeks' High & Low Weather Summary

 TemperatureHumidityPressure
High76 °F (May 12, 1:00 PM)100% (May 15, 7:00 AM)30.36 "Hg (May 15, 7:00 AM)
Low38 °F (May 21, 6:00 AM)34% (May 21, 5:00 PM)29.71 "Hg (May 19, 12:00 AM)
Average56 °F69%30.09 "Hg
* Reported May 7 10:00 AM — May 22 10:00 AM, Ettelbruck, Weather by CustomWeather, © 2015

Note: Actual official high and low records may vary slightly from our data, if they occured in-between our weather recording intervals... More about our weather records

Advertising

Ettelbruck weather history for previous 24 hours

 ConditionsComfort  
Time TempWeatherWind HumidityBarometerVisibility
10:00 AM
Fri, May 22
58 °FPartly sunny.3 mph57%30.32 "Hg16 mi
9:00 AM56 °FScattered clouds.2 mph60%30.33 "Hg16 mi
8:00 AM52 °FPartly sunny.2 mph70%30.33 "Hg16 mi
7:00 AM51 °FPartly sunny.2 mph73%30.33 "Hg14 mi
6:00 AM49 °FPassing clouds.2 mph74%30.34 "Hg11 mi
5:00 AM49 °FClear.3 mph75%30.35 "Hg12 mi
4:00 AM49 °FCool.3 mph74%30.35 "Hg6 mi
3:00 AM50 °FCool.3 mph70%30.35 "Hg6 mi
2:00 AM50 °FPassing clouds.3 mph68%30.35 "Hg22 mi
1:00 AM48 °FPassing clouds.3 mph73%30.36 "Hg22 mi
12:00 AM51 °FCool.3 mph64%30.35 "Hg6 mi
11:00 PM
Thu, May 21
53 °FPassing clouds.2 mph58%30.35 "Hg22 mi
10:00 PM54 °FPassing clouds.2 mph54%30.33 "Hg22 mi
9:00 PM56 °FScattered clouds.2 mph48%30.31 "Hg34 mi
8:00 PM61 °FScattered clouds.3 mph37%30.29 "Hg34 mi
7:00 PM60 °FPassing clouds.3 mph35%30.28 "Hg34 mi
6:00 PM62 °FPassing clouds.3 mph34%30.27 "Hg34 mi
5:00 PM61 °FScattered clouds.5 mph34%30.27 "Hg34 mi
4:00 PM59 °FScattered clouds.3 mph37%30.28 "Hg34 mi
3:00 PM58 °FScattered clouds.3 mph37%30.28 "Hg34 mi
2:00 PM58 °FScattered clouds.5 mph39%30.28 "Hg34 mi
1:00 PM58 °FScattered clouds.2 mph40%30.29 "Hg19 mi
12:00 PM54 °FScattered clouds.5 mph52%30.29 "Hg16 mi
11:00 AM54 °FScattered clouds.2 mph55%30.29 "Hg16 mi
Weather by CustomWeather, © 2015

See weather overviewHow to use our weather pages